South St. Paul, MN

4:52 PM CDT on April 23, 2018 (GMT -0500)
South Saint Paul Municipal-Fleming

Weather History for KSGS - March, 2013

Change the Weather History Date:

Monday, March 4, 2013

  Actual Average (KSTP) Record (KSTP)
Temperature  
Mean Temperature 26 °F -  
Max Temperature 28 °F 28 °F 44 °F (2005)
Min Temperature 25 °F 15 °F 0 °F (2002)
Degree Days  
Heating Degree Days 38    
Moisture  
Dew Point 17 °F    
Average Humidity 67    
Maximum Humidity 92    
Minimum Humidity 40    
Precipitation  
Precipitation 0.05 in - - ()
Sea Level Pressure  
Sea Level Pressure 29.98 in    
Wind  
Wind Speed 7 mph (ESE)    
Max Wind Speed 14 mph    
Max Gust Speed 20 mph    
Visibility 7 miles    
Events Snow    
Averages and records for this station are not official NWS values.
T = Trace of Precipitation, MM = Missing Value Source: NWS Daily Summary

Daily Weather History Graph

Daily Weather History Graph

Search for Another Location

Airport or City:

Astronomy

Mar. 04, 2013 Rise Set
Actual Time 6:44 AM CST 6:04 PM CST
Civil Twilight 6:14 AM CST 6:33 PM CST
Nautical Twilight 5:40 AM CST 7:07 PM CST
Astronomical Twilight 5:06 AM CST 7:41 PM CST
Moon 1:04 AM CST (3/4) 10:35 AM CST (3/4)
Length of Visible Light 12h 18m
Length of Day
11h 20m
Waning Gibbous, 52% of the Moon is Illuminated
Mar 4
Waning Gibbous
Mar 4
Last Quarter
Mar 11
New
Mar 19
First Quarter
Mar 27
Full

Hourly Weather History & Observations

Time (CST) Temp. Windchill Dew Point Humidity Pressure Visibility Wind Dir Wind Speed Gust Speed Precip Events Conditions
12:12 AM 28.4 °F 21.2 °F 7.0 °F 40% 30.00 in 10.0 mi SE 6.9 mph - N/A   Overcast
12:32 AM 28.4 °F 24.6 °F 8.2 °F 43% 30.00 in 10.0 mi SE 3.5 mph - N/A   Overcast
12:52 AM 28.2 °F 24.4 °F 9.0 °F 44% 30.01 in 10.0 mi SE 3.5 mph - N/A   Overcast
1:12 AM 28.4 °F 23.3 °F 9.0 °F 44% 30.00 in 10.0 mi ESE 4.6 mph - N/A   Overcast
1:52 AM 28.4 °F 23.3 °F 9.3 °F 45% 30.00 in 10.0 mi SE 4.6 mph - N/A   Overcast
2:12 AM 28.4 °F 23.3 °F 10.4 °F 47% 29.99 in 10.0 mi ESE 4.6 mph - N/A   Overcast
2:32 AM 28.4 °F 22.2 °F 10.4 °F 47% 29.98 in 10.0 mi SE 5.8 mph - N/A   Overcast
2:52 AM 28.4 °F 23.3 °F 10.9 °F 48% 29.98 in 10.0 mi SE 4.6 mph - N/A   Overcast
3:12 AM 28.4 °F 20.4 °F 11.1 °F 48% 29.97 in 10.0 mi SE 8.1 mph - N/A   Overcast
3:32 AM 28.4 °F 22.2 °F 11.7 °F 50% 29.97 in 10.0 mi SE 5.8 mph - N/A   Overcast
3:52 AM 28.4 °F 23.3 °F 11.3 °F 49% 29.96 in 10.0 mi SE 4.6 mph - N/A   Overcast
4:12 AM 28.4 °F 21.2 °F 11.7 °F 50% 29.96 in 10.0 mi ESE 6.9 mph - N/A   Overcast
4:32 AM 28.4 °F 21.2 °F 11.8 °F 50% 29.96 in 10.0 mi SE 6.9 mph - N/A   Overcast
4:52 AM 28.4 °F 20.4 °F 11.7 °F 50% 29.96 in 10.0 mi ESE 8.1 mph - N/A   Overcast
5:12 AM 28.2 °F 18.9 °F 11.8 °F 50% 29.96 in 10.0 mi ESE 10.4 mph - N/A   Overcast
5:52 AM 27.9 °F 19.1 °F 11.8 °F 51% 29.97 in 10.0 mi ESE 9.2 mph - N/A   Overcast
6:12 AM 27.5 °F 20.2 °F 12.2 °F 53% 29.97 in 10.0 mi SE 6.9 mph - N/A   Overcast
6:32 AM 27.1 °F 18.9 °F 13.3 °F 56% 29.97 in 10.0 mi ESE 8.1 mph - N/A   Mostly Cloudy
6:52 AM 26.4 °F 18.9 °F 16.2 °F 65% 29.97 in 5.0 mi SE 6.9 mph 16.1 mph N/A Snow Light Snow
7:12 AM 25.7 °F 17.1 °F 18.3 °F 74% 29.97 in 4.0 mi SSE 8.1 mph - N/A Snow Light Snow
7:32 AM 25.5 °F 17.8 °F 18.3 °F 74% 29.97 in 2.5 mi ESE 6.9 mph - N/A Snow Light Snow
7:52 AM 25.5 °F 16.9 °F 18.7 °F 75% 29.97 in 1.8 mi SE 8.1 mph - N/A Snow Light Snow
8:12 AM 25.5 °F 17.8 °F 18.9 °F 76% 29.97 in 2.5 mi ESE 6.9 mph - N/A Snow Light Snow
8:32 AM 25.5 °F 21.3 °F 19.4 °F 78% 29.98 in 3.0 mi SE 3.5 mph - N/A Snow Light Snow
8:52 AM 25.5 °F 16.9 °F 18.7 °F 75% 29.98 in 3.0 mi SE 8.1 mph - N/A Snow Light Snow
9:12 AM 25.5 °F 18.7 °F 18.1 °F 74% 29.98 in 2.5 mi SE 5.8 mph - N/A Snow Light Snow
9:32 AM 25.7 °F 16.4 °F 18.1 °F 73% 29.98 in 2.5 mi SE 9.2 mph - N/A   Haze
9:52 AM 25.7 °F 15.7 °F 17.6 °F 71% 29.98 in 2.0 mi ESE 10.4 mph 17.3 mph N/A   Haze
10:12 AM 25.7 °F 15.7 °F 18.0 °F 73% 29.97 in 2.0 mi ESE 10.4 mph - N/A   Haze
10:32 AM 26.2 °F 15.8 °F 16.9 °F 68% 29.97 in 7.0 mi ESE 11.5 mph 17.3 mph N/A   Overcast
10:52 AM 27.5 °F 19.3 °F 12.7 °F 54% 29.97 in 10.0 mi ESE 8.1 mph - N/A   Overcast
11:12 AM 28.4 °F 19.1 °F 10.8 °F 48% 29.97 in 10.0 mi ESE 10.4 mph 17.3 mph N/A   Overcast
11:32 AM 28.4 °F 18.5 °F 11.3 °F 49% 29.97 in 10.0 mi East 11.5 mph 17.3 mph N/A   Overcast
11:52 AM 28.0 °F 18.6 °F 12.7 °F 53% 29.96 in 5.0 mi East 10.4 mph 17.3 mph N/A   Haze
12:12 PM 28.4 °F 22.2 °F 14.2 °F 55% 29.96 in 5.0 mi ESE 5.8 mph 17.3 mph N/A Snow Light Snow
12:52 PM 27.5 °F 18.6 °F 14.7 °F 59% 29.95 in 10.0 mi East 9.2 mph - N/A   Overcast
1:12 PM 27.7 °F 16.6 °F 13.1 °F 54% 29.95 in 10.0 mi ESE 13.8 mph 19.6 mph N/A   Overcast
1:32 PM 27.5 °F 18.6 °F 13.5 °F 56% 29.96 in 10.0 mi East 9.2 mph - N/A   Overcast
1:52 PM 27.1 °F 16.9 °F 14.2 °F 58% 29.95 in 10.0 mi East 11.5 mph 17.3 mph N/A   Overcast
2:12 PM 27.0 °F 18.0 °F 14.0 °F 58% 29.95 in 10.0 mi East 9.2 mph 17.3 mph N/A   Overcast
2:32 PM 26.6 °F 16.8 °F 15.6 °F 63% 29.95 in 10.0 mi East 10.4 mph 17.3 mph N/A   Overcast
2:52 PM 26.2 °F 17.1 °F 17.4 °F 69% 29.97 in 10.0 mi East 9.2 mph - N/A   Overcast
3:12 PM 26.2 °F 17.1 °F 18.3 °F 72% 29.96 in 10.0 mi East 9.2 mph 16.1 mph N/A   Overcast
3:32 PM 26.1 °F 15.0 °F 18.7 °F 74% 29.97 in 10.0 mi East 12.7 mph 16.1 mph N/A   Overcast
3:52 PM 26.1 °F 16.8 °F 18.9 °F 74% 29.98 in 10.0 mi East 9.2 mph 16.1 mph N/A   Overcast
4:12 PM 26.1 °F 18.4 °F 19.0 °F 75% 29.98 in 10.0 mi East 6.9 mph - N/A   Overcast
4:32 PM 26.1 °F 18.4 °F 19.2 °F 75% 29.99 in 10.0 mi East 6.9 mph - N/A   Mostly Cloudy
4:52 PM 26.2 °F 17.1 °F 19.4 °F 75% 29.98 in 10.0 mi East 9.2 mph - N/A   Mostly Cloudy
5:12 PM 26.4 °F 17.3 °F 19.4 °F 75% 29.98 in 10.0 mi East 9.2 mph - N/A   Mostly Cloudy
5:32 PM 26.4 °F 17.3 °F 19.8 °F 76% 29.98 in 10.0 mi East 9.2 mph - N/A   Overcast
5:52 PM 26.4 °F 17.3 °F 19.9 °F 77% 29.98 in 10.0 mi East 9.2 mph - N/A   Overcast
6:12 PM 26.2 °F 17.1 °F 20.1 °F 78% 29.98 in 7.0 mi East 9.2 mph - N/A Snow Light Snow
6:32 PM 26.2 °F 19.6 °F 20.5 °F 79% 29.99 in 5.0 mi East 5.8 mph - N/A Snow Light Snow
6:52 PM 26.2 °F 19.6 °F 20.8 °F 80% 29.99 in 7.0 mi East 5.8 mph - N/A Snow Light Snow
7:12 PM 26.4 °F 20.9 °F 21.0 °F 80% 30.00 in 7.0 mi East 4.6 mph - N/A   Overcast
7:32 PM 26.6 °F 21.2 °F 21.0 °F 79% 30.00 in 10.0 mi East 4.6 mph - N/A   Overcast
7:52 PM 26.6 °F - 21.2 °F 80% 30.01 in 10.0 mi Calm Calm - N/A   Overcast
8:12 PM 26.6 °F - 21.2 °F 80% 30.02 in 10.0 mi Calm Calm - N/A   Overcast
8:32 PM 27.0 °F - 21.6 °F 80% 30.03 in 5.0 mi Calm Calm - N/A Snow Light Snow
8:52 PM 26.6 °F 22.6 °F 22.1 °F 83% 30.04 in 3.0 mi East 3.5 mph - N/A Snow Light Snow
9:12 PM 26.6 °F - 22.3 °F 84% 30.03 in 2.5 mi Calm Calm - 0.01 in Snow Light Snow
9:32 PM 26.4 °F - 22.6 °F 86% 30.04 in 7.0 mi Calm Calm - 0.01 in   Overcast
9:52 PM 26.4 °F 22.4 °F 22.8 °F 86% 30.04 in 3.0 mi ESE 3.5 mph - 0.01 in Snow Light Snow
10:12 PM 26.6 °F 22.6 °F 23.7 °F 89% 30.03 in 0.8 mi ESE 3.5 mph - N/A   Overcast
10:32 PM 26.4 °F 19.8 °F 24.3 °F 92% 30.03 in 0.8 mi East 5.8 mph - 0.01 in Snow Snow
10:52 PM 26.2 °F 20.7 °F 24.3 °F 92% 30.03 in 1.8 mi East 4.6 mph - 0.01 in Snow Light Snow
11:12 PM 26.2 °F 19.6 °F 24.3 °F 92% 30.02 in 0.8 mi East 5.8 mph - N/A Snow Snow
11:32 PM 26.1 °F 20.5 °F 24.1 °F 92% 30.02 in 4.0 mi East 4.6 mph - 0.02 in Snow Light Snow
11:52 PM 26.4 °F 19.8 °F 24.1 °F 91% 30.01 in 1.5 mi East 5.8 mph - 0.03 in Snow Light Snow